Flight Track Log - Related Links

Times and Time Zones

All times are in EDT time to prevent confusion due to time zone crossing. See the SWA3497 flight status page for this flight to view local times or setup timezone preferences in your user account.

Time Position Orientation Groundspeed Altitude Reporting Facility
EDT Latitude Longitude Course Direction KTS MPH feet Rate Location/Type
Sun 04:22:28 PM 39.1411 -76.7531 100° East 197 227 3,600  Level Washington Center
Sun 04:23:29 PM 39.1294 -76.6700 100° East 118 136 5,900 2,650 Climbing Washington Center
Sun 04:24:28 PM 39.1325 -76.5736 88° East 142 163 8,900 2,874 Climbing Washington Center
Sun 04:25:28 PM 39.1375 -76.4667 87° East 233 268 11,600 3,000 Climbing Washington Center
Sun 04:26:28 PM 39.1425 -76.3408 87° East 284 327 14,900 3,223 Climbing Washington Center
Sun 04:27:29 PM 39.1494 -76.2097 86° East 309 356 18,100 2,650 Climbing Washington Center
Sun 04:28:28 PM 39.1708 -76.0681 79° East 353 406 20,200 2,269 Climbing Washington Center
Sun 04:29:28 PM 39.1881 -75.9208 81° East 386 444 22,600 1,388 Climbing Washington Center
Sun 04:30:29 PM 39.2611 -75.7953 53° Northeast 410 472 23,000 700 Climbing Washington Center
Sun 04:31:28 PM 39.3447 -75.6856 45° Northeast 419 482 24,000 1,765 Climbing Washington Center
Sun 04:32:28 PM 39.4322 -75.5700 46° Northeast 430 495 26,500 2,430 Climbing Washington Center
Sun 04:33:29 PM 39.5217 -75.4569 44° Northeast 442 509 28,900 833 Climbing Washington Center
Sun 04:35:28 PM 39.7114 -75.2019 46° Northeast 471 542 29,000 33 Climbing New York Center
Sun 04:36:29 PM 39.8078 -75.0783 45° Northeast 476 548 29,000  Level New York Center
Sun 04:37:27 PM 39.9100 -74.9575 42° Northeast 481 554 29,000  Level New York Center
Sun 04:38:27 PM 39.9906 -74.8594 43° Northeast 481 554 29,000  Level New York Center
Sun 04:39:28 PM 40.1058 -74.7169 43° Northeast 485 558 29,000  Level New York Center
Sun 04:40:28 PM 40.1994 -74.6025 43° Northeast 485 558 29,000  Level New York Center
Sun 04:41:29 PM 40.3100 -74.4617 44° Northeast 490 564 29,000  Level New York Center
Sun 04:42:29 PM 40.4011 -74.3522 42° Northeast 497 572 29,000  Level New York Center
Sun 04:43:29 PM 40.5136 -74.2133 43° Northeast 497 572 29,000 -1,112 Level New York Center
Sun 04:45:27 PM 40.7103 -73.9678 43° Northeast 493 567 25,700 -1,685 Descending Boston Center
Sun 04:46:27 PM 40.8014 -73.8522 44° Northeast 475 547 24,000 -850 Descending Boston Center
Sun 04:47:27 PM 40.8925 -73.7389 43° Northeast 456 525 24,000  Level Boston Center
Sun 04:48:27 PM 40.9833 -73.6250 43° Northeast 445 512 24,000 -250 Level Boston Center
Sun 04:49:27 PM 41.0761 -73.5194 41° Northeast 440 506 23,500 -750 Descending Boston Center
Sun 04:50:27 PM 41.1625 -73.4106 43° Northeast 435 501 22,500 -1,000 Descending Boston Center
Sun 04:51:27 PM 41.2689 -73.3819 11° North 403 464 21,500 -1,000 Descending Boston Center
Sun 04:52:27 PM 41.3731 -73.4028 351° North 364 419 20,500 -909 Descending Boston Center
Sun 04:53:39 PM 41.4772 -73.4181 354° North 364 419 19,500 -955 Descending Boston Center
Sun 04:54:39 PM 41.5875 -73.4364 353° North 364 419 18,400 -750 Descending Boston Center
Sun 04:55:39 PM 41.6956 -73.4550 353° North 364 419 18,000 -933 Descending Boston Center
Sun 04:57:00 PM 41.8556 -73.4763 354° North  Level FlightAware Approximate
Sun 04:57:39 PM 41.8828 -73.4886 354° North 347 399 15,600  Level Boston Center
Sun 04:58:38 PM 41.9703 -73.5039 353° North 332 382 14,000 -1,600 Descending Boston Center
Sun 04:59:39 PM 42.0619 -73.5194 353° North 322 371 12,400 -1,553 Descending Boston Center
Sun 05:00:03 PM 42.0972 -73.5228 356° North 314 361 11,800 -1,400 Descending Boston Center
Sun 05:00:39 PM 42.1492 -73.5267 357° North 312 359 11,000 -800 Descending Boston Center
Sun 05:01:03 PM 42.1783 -73.5411 340° North 293 337 11,000 -800 Level Boston Center
Sun 05:01:39 PM 42.2175 -73.5697 332° Northwest 289 333 10,200 -1,433 Descending Boston Center
Sun 05:02:10 PM 42.2550 -73.5931 335° Northwest 262 302 9,400 -1,500 Descending Boston Center
Sun 05:02:39 PM 42.2858 -73.6158 331° Northwest 272 313 8,700 -1,527 Descending Boston Center
Sun 05:03:05 PM 42.3108 -73.6306 336° Northwest 266 306 8,000 -1,400 Descending Boston Center
Sun 05:03:39 PM 42.3461 -73.6536 334° Northwest 262 302 7,300 -1,455 Descending Boston Center
Sun 05:04:11 PM 42.3872 -73.6825 333° Northwest 264 304 6,400 -1,600 Descending Boston Center
Sun 05:04:39 PM 42.4164 -73.7028 333° Northwest 255 293 5,700 -1,377 Descending Boston Center
Sun 05:05:12 PM 42.4536 -73.7289 333° Northwest 261 300 5,000 -1,200 Descending Boston Center
Sun 05:05:39 PM 42.4742 -73.7406 337° Northwest 262 302 4,500 -1,279 Descending Boston Center
Sun 05:06:13 PM 42.5156 -73.7697 333° Northwest 254 292 3,700 -1,100 Descending Boston Center
Sun 05:06:39 PM 42.5447 -73.7731 355° North 256 295 3,400 -714 Descending Boston Center
Sun 05:06:55 PM 42.5592 -73.7789 343° North 231 266 3,200 -800 Descending Boston Center
Sun 05:07:39 PM 42.6050 -73.7911 349° North 237 273 2,600 -590 Descending Boston Center
Sun 05:07:56 PM 42.6194 -73.7917 358° North 223 257 2,600 -100 Level Boston Center
Sun 05:08:39 PM 42.6631 -73.8122 341° North 237 273 2,500 -885 Descending Boston Center
Sun 05:08:57 PM 42.6694 -73.8039 44° Northeast 149 171 1,700 -1,200 Descending Boston Center
Sun 05:10:04 PM 42.7089 -73.8075 356° North 124 143 800 -806 Descending Boston Center

Login

Don't have an account? Register now (free) for customized features, flight alerts, and more!